Historyczne dane pomiarowe

Dodano dane terminowe – wersja testowa.

Dane z okresu 1951-2019

Wersja bazy: 1.34 [2019-03-16, lista zmian], aktualizacja planowana na 2019-04-15

Dane meteo z obszaru Polski uzyskane na podstawie danych udostępnionych przez Instytut Meteorologii i Gospodarki Wodnej – Państwowy Instytut Badawczy.

 

Wybierz Datę:    

       

TemperaturaWilgotnośćWiatrCiśnienieOpadyŚniegCzas trwania zjawisk
 Stacja t tx tn tng RH VA  wxwx mslp ppp RRR   cm mm wxwxwxwxwxwxwx
2019-06-19 22.5 31.9 14.3 11.1-- 4.0----- 0.0------------
2019-06-18 22.2 27.6 12.1 9.1-- 1.3----- 0.0------------
2019-06-17 19.9 26.9 10.1 8.1-- 2.7----- 0.0------------
2019-06-16 21.4 25.4 18.2 17.1-- 4.0----- 0.0------------
2019-06-15 24.9 34.4 19.2 18.1-- 4.7----- 0.6------------
2019-06-14 22.2 29.6 12.9 11.1-- 1.7----- 0.0------------
2019-06-13 21.9 29.1 16.8 16.1-- 5.3----- 2.8------------
2019-06-12 27.3 33.9 19.7 17.6-- 3.0----- 1.5------------
2019-06-11 26.3 33.9 19.0 15.6-- 2.7----- 0.0------------
2019-06-10 23.5 29.9 15.8 14.6-- 5.3----- 0.0------------
2019-06-09 17.2 25.9 6.5 4.2-- 2.3----- 0.0------------
2019-06-08 18.3 22.8 13.3 11.3-- 4.0----- 0.0------------
2019-06-07 18.6 22.4 15.1 14.6-- 5.3----- 0.0------------
2019-06-06 22.7 31.5 15.4 13.6-- 3.7----- 1.0------------
2019-06-05 22.9 29.9 14.4 12.1-- 2.7----- 0.0------------
2019-06-04 22.5 28.4 14.8 12.1-- 1.7----- 0.0------------
2019-06-03 22.6 29.4 13.6 9.6-- 0.0----- 0.0------------
2019-06-02 20.7 28.4 11.4 8.8-- 1.0----- 0.0------------
2019-06-01 19.7 26.9 12.1 9.6-- 4.3----- 0.0------------
2019-05-31 16.4 23.6 7.9 5.7-- 6.7----- 0.0------------
2019-05-30 12.6 19.8 3.0 0.4-- 0.3----- 0.0------------
2019-05-29 12.3 16.6 7.9 7.6-- 5.0----- 0.0------------
2019-05-28 15.7 21.6 13.3 11.9-- 8.0----- 5.8------------
2019-05-27 19.0 24.6 12.1 8.4-- 5.3----- 8.3------------
2019-05-26 15.5 22.6 7.4 4.7-- 2.3----- 0.0------------
2019-05-25 15.5 21.3 8.4 5.9-- 5.3----- 0.0------------
2019-05-24 13.4 20.8 3.5 0.9-- 2.7----- 0.0------------
2019-05-23 13.0 16.8 10.0 9.6-- 7.3----- 0.0------------
2019-05-22 14.1 17.4 12.1 11.8-- 8.0----- 18.3------------
2019-05-21 16.4 24.9 8.3 5.2-- 5.3----- 7.5------------
2019-05-20 16.6 22.3 9.9 6.7-- 4.3----- 0.8------------
2019-05-19 16.6 25.1 8.4 5.7-- 4.0----- 0.0------------
2019-05-18 14.3 22.8 6.5 3.3-- 0.7----- 0.0------------
2019-05-17 11.9 19.3 5.0 2.3-- 6.0----- 0.0------------
2019-05-16 10.2 13.3 7.4 6.2-- 7.3----- 0.2------------
2019-05-15 7.0 9.9 4.5 3.3-- 8.0----- 6.7------------
2019-05-14 7.5 13.3 0.5 -2.6-- 7.0----- 2.5------------
2019-05-13 9.7 15.3 5.5 2.8-- 4.7----- 0.1------------
2019-05-12 9.1 13.8 5.0 3.8-- 7.7----- 6.0------------
2019-05-11 10.8 17.8 3.5 0.9-- 7.7----- 6.5------------
2019-05-10 11.0 16.3 3.5 1.3-- 7.7----- 1.5------------
2019-05-09 11.6 14.6 9.3 7.9-- 6.7----- 13.5------------
2019-05-08 10.1 19.3 -0.5 -4.2-- 5.3----- 2.4------------
2019-05-07 8.1 14.6 0.8 -2.6-- 3.7----- 0.0------------
2019-05-06 6.2 12.8 -1.0 -3.7-- 3.7----- 0.0------------
2019-05-05 6.3 12.3 0.8 -2.6-- 3.7----- 0.0------------
2019-05-04 5.7 9.7 3.0 0.9-- 8.0----- 6.5------------
2019-05-03 9.7 13.4 7.5 2.8-- 7.3----- 0.0------------
2019-05-02 11.5 16.6 7.0 2.3-- 3.3----- 0.0------------
2019-05-01 12.0 18.6 4.5 1.3-- 6.3----- 0.0------------
2019-04-30 12.6 19.6 6.0 3.0-- 0.7----- 0.0------------
2019-04-29 12.8 18.1 8.7 8.1-- 7.3----- 0.2------------
2019-04-28 11.3 15.0 7.9 5.2-- 7.7----- 2.4------------
2019-04-27 14.5 22.8 10.4 10.1-- 8.0----- 0.0------------
2019-04-26 18.8 27.4 9.4 4.7-- 3.3----- 0.0------------
2019-04-25 17.5 25.9 8.4 4.7-- 1.7----- 0.0------------
2019-04-24 15.5 20.3 11.3 9.6-- 3.3----- 0.0------------
2019-04-23 13.1 20.0 6.0 3.8-- 4.0----- 0.0------------
2019-04-22 10.0 17.3 1.5 -3.1-- 0.7----- 0.0------------
2019-04-21 10.0 19.8 -0.5 -2.7-- 0.0----- 0.0------------
157.0 ms

 

Źródłem pochodzenia danych jest Instytut Meteorologii i Gospodarki Wodnej – Państwowy Instytut Badawczy. Dane Instytutu Meteorologii i Gospodarki Wodnej – Państwowego Instytutu Badawczego zostały przetworzone.

Dane źródłowe można odnaleźć na stronie https://dane.imgw.pl